sat.trackr.live / text

‹ back to catalog

STARLINK-36358

NORAD 67598 · 2026-018K

PAYLOAD ACTIVE UNKNOWN

§ Identity

Operator
Country
US
Launch date
2026-01-29
Launch site
AFWTR
Launch vehicle
Mass (kg)
RCS (m²)

Purposes: comms

External: N2YO · Heavens-Above · Gunter

§ Orbital elements

Epoch: 2026-05-25T03:53:53.894112Z

Period
93.91 min
Inclination
97.2846°
Eccentricity
0.0000995
Mean motion
15.33454680 rev/d
Perigee alt
464.8 km
Apogee alt
466.2 km
Semi-major
6,843.7 km
B*
4.4636e-4
RAAN
210.2875°
Arg perigee
100.6832°
Mean anomaly
259.4523°
Rev number
1,905

§ Raw data

STARLINK-363581 67598U 26018K   26145.16242933  .00014367  00000+0  44636-3 0  99962 67598  97.2846 210.2875 0000995 100.6832 259.4523 15.33454680 19055

JSON: /api/v1/satellites/67598 · /tle

For live sub-satellite position, see the globe view (requires WebGL).

§ Visibility from observer

Set your observer location to see the next 7 days of passes ≥ 10°. The values pass through the URL so the page stays shareable.

No JS? Fill the form by hand. The geolocation button needs JavaScript.